Flag Weather past 2 weeks in Kaohsiung, Taiwan

Now
73 °F

Fog.


Feels Like: 73 °F
Forecast: 70 / 85 °F
Wind: 3 mph from Northeast

Location: Kaohsiung International Airport

Current Time: Nov 27, 2014 at 7:37:23 AM

Latest Report: Nov 27, 2014 at 7:00 AM


Visibility: 2 mi

Pressure: 29.95 "Hg

Humidity: 83%

Dew point: 68 °F

Location of KaohsiungLocation

Historic Weather in Kaohsiung — Graph

°F

Kaohsiung temperature yesterday

Maximum temperature yesterday: 88 °F (at 10:30 AM)
Minimum temperature yesterday: 73 °F (at 2:00 AM)
Average temperature yesterday: 81 °F

Past Weeks' High & Low Weather Summary

 TemperatureHumidityPressure
High90 °F (Nov 25, 2:00 PM)94% (Nov 17, 5:57 AM)30.12 "Hg (Nov 17, 5:57 AM)
Low66 °F (Nov 20, 6:00 AM)24% (Nov 25, 2:00 PM)29.86 "Hg (Nov 25, 1:00 PM)
Average77 °F70%30.00 "Hg
* Reported Nov 12 6:00 AM — Nov 27 6:30 AM, Kaohsiung, Weather by CustomWeather, © 2014

Note: Actual official high and low records may vary slightly from our data, if they occured in-between our weather recording intervals... More about our weather records

Advertising

Kaohsiung weather history for previous 24 hours

 ConditionsComfort  
Time TempWeatherWind HumidityBarometerVisibility
6:30 AM
Nov 27
72 °FFog.2 mph88%29.95 "Hg2 mi
6:00 AM73 °FFog.3 mph83%29.95 "Hg2 mi
5:00 AM73 °FFog.3 mph83%29.92 "Hg2 mi
4:00 AM73 °FFog.3 mph83%29.92 "Hg2 mi
3:00 AM75 °FFog.3 mph83%29.92 "Hg2 mi
2:00 AM75 °FFog.3 mph83%29.92 "Hg2 mi
1:00 AM75 °FFog.3 mph83%29.92 "Hg2 mi
12:00 AM77 °FPassing clouds.3 mph79%29.92 "Hg3 mi
11:30 PM
Nov 26
77 °FPassing clouds.3 mph79%29.95 "Hg3 mi
11:00 PM77 °FPassing clouds.3 mph79%29.95 "Hg3 mi
10:51 PM77 °FPassing clouds.5 mph79%29.95 "Hg3 mi
10:30 PM77 °FPassing clouds.5 mph79%29.95 "Hg4 mi
10:00 PM79 °FPassing clouds.3 mph74%29.95 "Hg4 mi
9:30 PM79 °FPassing clouds.3 mph74%29.95 "Hg4 mi
9:00 PM79 °FPassing clouds.5 mph74%29.92 "Hg4 mi
8:30 PM79 °FPassing clouds.5 mph70%29.92 "Hg5 mi
8:00 PM79 °FPassing clouds.5 mph70%29.92 "Hg5 mi
7:30 PM79 °FPartly cloudy.6 mph70%29.92 "Hg5 mi
7:00 PM81 °FPassing clouds.6 mph62%29.92 "Hg5 mi
6:30 PM81 °FPassing clouds.2 mph70%29.92 "Hg4 mi
6:00 PM81 °FPassing clouds.5 mph70%29.89 "HgN/A
5:30 PM81 °FPassing clouds.6 mph70%29.89 "HgN/A
5:00 PM82 °FScattered clouds.6 mph62%29.86 "HgN/A
4:30 PM84 °FScattered clouds.6 mph55%29.86 "HgN/A
4:00 PM84 °FPartly sunny.7 mph55%29.86 "HgN/A
3:30 PM84 °FPartly sunny.8 mph55%29.86 "HgN/A
3:00 PM86 °FPartly sunny.10 mph52%29.86 "Hg5 mi
2:30 PM86 °FPartly sunny.10 mph52%29.86 "Hg5 mi
2:00 PM88 °FScattered clouds.9 mph46%29.86 "Hg3 mi
1:57 PM88 °FScattered clouds.9 mph46%29.86 "Hg3 mi
1:30 PM88 °FScattered clouds.10 mph46%29.86 "Hg3 mi
1:00 PM88 °FScattered clouds.12 mph46%29.86 "Hg2 mi
12:30 PM88 °FBroken clouds.9 mph46%29.89 "Hg2 mi
12:00 PM88 °FBroken clouds.8 mph46%29.89 "Hg2 mi
11:30 AM88 °FBroken clouds.6 mph49%29.92 "Hg2 mi
11:00 AM88 °FScattered clouds.3 mph46%29.92 "Hg3 mi
10:45 AM88 °FScattered clouds.5 mph49%29.92 "Hg3 mi
10:30 AM88 °FScattered clouds.3 mph49%29.92 "Hg3 mi
10:00 AM86 °FScattered clouds.3 mph52%29.95 "Hg2 mi
9:30 AM84 °FScattered clouds.5 mph55%29.95 "Hg2 mi
9:00 AM81 °FScattered clouds.6 mph62%29.95 "Hg2 mi
8:30 AM79 °FScattered clouds.7 mph65%29.95 "Hg2 mi
8:00 AM77 °FBroken clouds.7 mph69%29.92 "Hg1 mi
7:30 AM75 °FScattered clouds.7 mph74%29.92 "Hg1 mi
7:00 AM73 °FFog.5 mph78%29.92 "Hg1 mi
Weather by CustomWeather, © 2014

See weather overviewHow to use our weather pages